Powrót do katalogu

STARLINK-4043

AktywnyŁącznośćVLEO
NORAD 52836·PAYLOAD·🇺🇸 United States

Wystrzelony Jun 17, 2022 z Cape Canaveral Space Force Station

Loading…

Następne Przeloty (najbliższe 24 godziny)

TLE

ŚwieżeSource: CelesTrak SupGP

Epoka: Sep 15, 2026, 02:21 UTC

1 52836C 22062G   26258.09840278  .00578610  00000+0  21563-1 0  2589
2 52836  53.1600 234.2719 0001280  95.9507   2.8614 15.26622326    12

Śledź STARLINK-4043 w czasie rzeczywistym z AllMySat

Download on the App Store